星链-36477(STARLINK-36477)

导读

STARLINK-36477是美国于2026年1月9日发射的星链卫星,隶属于SpaceX公司的星链星座项目。星链计划旨在通过构建近地轨道卫星群,为全球用户提供高速互联网接入服务。该卫星的成功发射,进一步扩充了星链星座的在轨规模,持续推动全球卫星互联网覆盖网络的建设。

基本信息
目录编号:
67355
目录名称:
STARLINK-36477
国际标识:
2026-003X
轨道中心:
EARTH
卫星名称:
星链-36477
卫星全名:
星链-36477(STARLINK-36477)
卫星状态:
在轨 (已飞行238 天)
发射日期:
2026-01-09 UTC
国别 :
美国 (US)
星等 :
--
轨道信息
数据来源 国际轨道数据
星历时间: 2026-09-03T13:43:58+0800
1天前
查看轨道信息
半长轴: 6861.146km
偏心率: 0.0001475
轨道倾角: 43.001°
近地点辐角 269.995°
升交点赤经 304.720°
平近点角 90.073°
近地点: 481.996km
远地点: 484.022km
周期: 94.266分钟
每日圈数: 15.275935
详细信息
固有亮度:
5
最大亮度:
2.5
卫星平台:
Starlink V1.0
覆盖范围:
全球
运营商:
太空探索技术公司
运营商所在国:
美国
制造商(研发单位):
太空探索技术公司
制造商所在国:
美国
使用方式:
暂无
卫星简介
Starlink 计划是 SpaceX 推出的全球卫星互联网项目,通过发射低轨道卫星,为全球尤其是偏远地区提供高速、低延迟的互联网服务。自 2019 年起,Starlink 已部署数千颗卫星,旨在缩小全球数字鸿沟,推动互联网普及。该项目还为军事、航空等行业提供通信支持,带来广泛经济效益。
2D轨道图
3D轨道图
轨道高度分析图
轨道倾角分析图
轨道综合分析图
查看轨道综合分析图
交会数据列表
事件ID 空间交会对象 最接近时刻(TCA) 交会距离 交会风险概率(CRP) 交会风险指数(CRI) 操作
CDM_260904-143804-940206-735521
KOSEN-1 (49402)
2026-09-04T
14:38:26+0000
1.472 km
极远距离
4.307902E-6 低风险 0.48
CDM_260905-174506-470706-735521
2026-09-05T
17:45:13+0000
2.444 km
极远距离
1.264964E-6 低风险 0.37